Flag for Gambia Weather past 2 weeks in Banjul, Gambia

Now
77 °F

Sunny.


Feels Like: 78 °F
Forecast: 82 / 90 °F
Wind: No wind

Location: Banjul / Yundum

Current Time: Oct 24, 2014 at 7:12:53 AM

Latest Report: Oct 24, 2014 at 7:00 AM


Visibility: 10 mi

Pressure: 29.83 "Hg

Humidity: 94%

Dew point: 75 °F

Location of BanjulLocation

Historic Weather in Banjul — Graph

°F

Banjul temperature yesterday

Maximum temperature yesterday: 90 °F (at 12:00 PM)
Minimum temperature yesterday: 79 °F (at 3:00 AM)
Average temperature yesterday: 83 °F

Past Weeks' High & Low Weather Summary

 TemperatureHumidityPressure
High97 °F (Oct 16, 6:00 PM)100% (Oct 11, 4:00 AM)29.95 "Hg (Oct 11, 4:00 AM)
Low73 °F (Oct 9, 5:00 AM)41% (Oct 21, 3:00 PM)29.74 "Hg (Oct 9, 7:00 AM)
Average83 °F81%29.86 "Hg
* Reported Oct 9 5:00 AM — Oct 24 5:00 AM, Banjul, Weather by CustomWeather, © 2014

Note: Actual official high and low records may vary slightly from our data, if they occured in-between our weather recording intervals... More about our weather records

Advertising

Banjul weather history for previous 24 hours

 ConditionsComfort  
Time TempWeatherWind HumidityBarometerVisibility
5:00 AM
Oct 24
77 °FPassing clouds.6 mph94%29.83 "HgN/A
4:00 AM79 °FPassing clouds.9 mph89%N/AN/A
3:00 AM79 °FPassing clouds.9 mph89%29.83 "HgN/A
2:00 AM79 °FPassing clouds.12 mph89%29.86 "HgN/A
1:00 AM77 °FPassing clouds.No wind94%29.86 "HgN/A
12:00 AM79 °FPassing clouds.8 mph89%29.86 "HgN/A
11:00 PM
Oct 23
79 °FPassing clouds.No wind89%29.89 "HgN/A
10:00 PM79 °FPassing clouds.6 mph89%29.89 "HgN/A
9:00 PM81 °FPassing clouds.6 mph84%29.86 "HgN/A
8:00 PM81 °FPassing clouds.6 mph84%29.83 "HgN/A
7:00 PM82 °FPassing clouds.10 mph79%29.83 "HgN/A
6:00 PM86 °FScattered clouds.16 mph70%29.83 "HgN/A
5:00 PM88 °FScattered clouds.14 mph66%29.83 "HgN/A
4:00 PM90 °FPartly sunny.14 mph63%29.80 "HgN/A
3:00 PM90 °FPartly sunny.14 mph63%29.83 "HgN/A
2:00 PM90 °FPartly sunny.10 mph59%29.86 "HgN/A
1:00 PM90 °FPartly sunny.17 mph67%29.89 "HgN/A
12:00 PM90 °FBroken clouds.7 mph63%29.92 "HgN/A
11:00 AM88 °FPartly sunny.17 mph66%29.89 "HgN/A
10:00 AM86 °FBroken clouds.21 mph70%29.89 "HgN/A
9:00 AM84 °FScattered clouds.12 mph79%29.86 "HgN/A
8:00 AM79 °FScattered clouds.7 mph89%29.86 "HgN/A
7:00 AM79 °FWarm.6 mph89%29.86 "HgN/A
Weather by CustomWeather, © 2014

See weather overviewHow to use our weather pages